Location: *
(46.1006°N, 1.8394°E)
Time: 10:15:58
(UTC+00:00)

USA 186 - Pass Details

Date: 20 September 2019
Orbit: 261 x 450 km, 96.9° (Epoch: 07 October)

Event Time Altitude Azimuth Distance (km) Brightness Sun altitude
Exits shadow 20:12:28 13° 221° (SW) 1,402 4.5 -23.7°
Maximum altitude 20:14:36 22° 266° (W) 1,055 4.3 -24.0°
Drops below altitude 10° 20:17:19 10° 319° (NW) 1,597 5.6 -24.4°
Sets 20:19:43 0° 335° (NNW) 2,469 6.5 -24.8°
